User: anonymous   Login
Location: Caltech
(34.1382°N, 118.1253°W)
Time: 16:22:12
(UTC-07:00)
Language:

Cosmos 1975 - Orbit

View from above orbital plane
View from above orbital plane
View from above satellite
View from above satellite

Ground track
Ground track

The orbit data is extracted from the following two-line orbital elements,

1 19573U 88093A   15215.17661339  .00000934  00000-0  67409-4 0  9999
2 19573 082.5219 286.7064 0016424 105.4849 254.8192 15.02838059457025
Epoch (UTC): 03 August 2015 04:14:19
Eccentricity: 0.0016424
inclination: 82.5219°
perigee height: 547 km
apogee height: 569 km
right ascension of ascending node: 286.7064°
argument of perigee: 105.4849°
revolutions per day: 15.02838059
mean anomaly at epoch: 254.8192°
orbit number at epoch: 45702

The dashed part of the orbit path shows where the satellite is in the earth's shadow,  

DLR